This is the latest recevied weather packets stored in our database for station/object DL9GRB-13. If no packets are shown the sender has not sent any weather packets the latest 10 day(s).
| Time | Temp. | Humidity | Pressure | Rain* | Wind** | Luminosity | Snow |
|---|---|---|---|---|---|---|---|
| 1777269005 | 8.33° C | 75% | 1023.1 hPa | 0 mm | - | 86 W/m² | - |
| 1777268825 | 7.78° C | 77% | 1023.3 hPa | 0 mm | - | 84 W/m² | - |
| 1777268645 | 7.78° C | 79% | 1023.1 hPa | 0 mm | - | 81 W/m² | - |
| 1777268465 | 7.22° C | 80% | 1023.3 hPa | 0 mm | - | 78 W/m² | - |
| 1777268285 | 6.67° C | 81% | 1023 hPa | 0 mm | - | 77 W/m² | - |
| 1777268105 | 5.56° C | 86% | 1023.2 hPa | 0 mm | - | 78 W/m² | - |
| 1777267925 | 5.56° C | 86% | 1023 hPa | 0 mm | - | 79 W/m² | - |
| 1777267745 | 5° C | 87% | 1022.9 hPa | 0 mm | - | 80 W/m² | - |
| 1777267565 | 4.44° C | 88% | 1023.1 hPa | 0 mm | - | 80 W/m² | - |
| 1777267385 | 3.89° C | 90% | 1023.1 hPa | 0 mm | - | 79 W/m² | - |
| 1777267205 | 3.33° C | 92% | 1022.9 hPa | 0 mm | - | 76 W/m² | - |
| 1777267025 | 2.78° C | 92% | 1023 hPa | 0 mm | - | 74 W/m² | - |
| 1777266845 | 2.78° C | 92% | 1022.9 hPa | 0 mm | - | 72 W/m² | - |
| 1777266665 | 2.78° C | 92% | 1022.9 hPa | 0 mm | - | 51 W/m² | - |
| 1777266485 | 2.78° C | 93% | 1023.1 hPa | 0 mm | - | 31 W/m² | - |
| 1777266305 | 2.22° C | 96% | 1023 hPa | 0 mm | - | 45 W/m² | - |
| 1777266125 | 2.22° C | 96% | 1022.8 hPa | 0 mm | - | 60 W/m² | - |
| 1777265945 | 1.67° C | 96% | 1022.9 hPa | 0 mm | - | 58 W/m² | - |
| 1777265765 | 0.56° C | 95% | 1022.9 hPa | 0 mm | - | 55 W/m² | - |
| 1777265585 | 0.56° C | 95% | 1023 hPa | 0 mm | - | 52 W/m² | - |
| 1777265405 | 0° C | 95% | 1022.8 hPa | 0 mm | - | 49 W/m² | - |
| 1777265225 | -0.56° C | 94% | 1022.8 hPa | 0 mm | - | 46 W/m² | - |
| 1777265045 | -0.56° C | 94% | 1022.9 hPa | 0 mm | - | 25 W/m² | - |
| 1777264865 | -0.56° C | 94% | 1022.9 hPa | 0 mm | - | 24 W/m² | - |
| 1777264685 | -0.56° C | 94% | 1022.8 hPa | 0 mm | - | 23 W/m² | - |
* Rain latest hour (hover to see other rain measurements)
** Current wind speed in m/s (hover to see current wind gust speed)